Location: Platte
(43.3870°N, 98.8440°W)
Time: 02:52:00
(UTC-05:00)

Landsat 7 - Visible Passes

Search period start: 24 April 2014 00:00
Search period end: 04 May 2014 00:00
Orbit: 702 x 703 km, 98.2° (Epoch: 23 April)

Date Brightness Start Highest point End Pass type
(mag) Time Alt. Az. Time Alt. Az. Time Alt. Az.
24 Apr 4.3 22:38:32 39° E 22:39:10 42° ENE 22:43:39 10° N visible
25 Apr 5.7 00:17:24 22° W 00:17:24 22° W 00:20:45 10° NW visible
25 Apr 5.8 21:42:50 11° E 21:44:43 14° ENE 21:47:06 10° NNE visible
25 Apr 3.8 23:21:42 75° WSW 23:21:50 76° WSW 23:26:37 10° NNW visible
26 Apr 4.7 22:26:00 29° E 22:27:02 32° ENE 22:31:15 10° N visible
27 Apr 5.3 00:04:53 28° W 00:04:53 28° W 00:08:53 10° NW visible
27 Apr 6.0 21:31:40 10° ENE 21:32:41 11° ENE 21:33:43 10° NE visible
27 Apr 3.6 23:09:11 73° SE 23:09:38 83° ENE 23:14:24 10° NNW visible
28 Apr 6.4 00:48:04 11° W 00:48:04 11° W 00:49:05 10° WNW visible
28 Apr 5.1 22:13:29 22° E 22:14:55 25° ENE 22:18:48 10° N visible
28 Apr 4.8 23:52:22 37° W 23:52:28 37° W 23:56:54 10° NNW visible
29 Apr 3.8 22:56:40 54° ESE 22:57:26 63° ENE 23:02:08 10° N visible
30 Apr 6.1 00:35:33 15° W 00:35:36 15° W 00:38:12 10° WNW visible
30 Apr 5.4 22:00:58 16° E 22:02:49 20° ENE 22:06:14 10° NNE visible
30 Apr 4.3 23:39:51 48° WSW 23:40:12 49° W 23:44:50 10° NNW visible
01 May 4.2 22:44:09 40° ESE 22:45:15 48° ENE 22:49:49 10° N visible
02 May 5.8 00:23:01 19° W 00:23:14 19° W 00:26:38 10° NW visible
02 May 5.7 21:48:26 12° E 21:50:44 16° ENE 21:53:31 10° NNE visible
02 May 3.9 23:27:19 59° SW 23:27:56 66° WSW 23:32:41 10° NNW visible
03 May 4.6 22:31:37 29° ESE 22:33:05 37° ENE 22:37:26 10° N visible
